INMARSAT 3-F1

Last updated on Fri Dec 19 2025 00:02:48 GMT+0000 (Coordinated Universal Time)

1 23839U 96020A 25352.09608370 -.00000155 00000+0 00000+0 0 9992 2 23839 10.2234 48.2765 0008938 209.6758 313.3631 0.99976929108443
UTC large
Height (km)
Speed (km/s)
/
Latitude / Longitude
Inclination (degrees)
Orbital Period (minutes)
Azimuth
Elevation
Range (km)
Doppler Factor

Next 0 passes for location: London (51.5072 / 0.1276)

Sorry there are no passes over London.